Plattsburgh, NY

3:19 AM EST on December 16, 2019 (GMT -0500)
Plattsburgh International

Weather History for KPBG - October, 2019

Change the Weather History Date:

Tuesday, October 15, 2019

  Actual Average Record
Temperature  
Mean Temperature 46 °F 48 °F  
Max Temperature 60 °F 57 °F 79 °F (1954)
Min Temperature 34 °F 38 °F 27 °F (1950)
Degree Days  
Heating Degree Days 18 17  
Month to date heating degree days 223  
Since 1 July heating degree days 458  
Cooling Degree Days 0 0  
Month to date cooling degree days 0  
Year to date cooling degree days 345  
Moisture  
Dew Point 35 °F    
Average Humidity 68    
Maximum Humidity 93    
Minimum Humidity 35    
Precipitation  
Precipitation 0.00 in - 1.67 in (2010)
Month to date precipitation  
Year to date precipitation  
Sea Level Pressure  
Sea Level Pressure 30.07 in    
Wind  
Wind Speed 2 mph ()    
Max Wind Speed 10 mph    
Max Gust Speed -    
Visibility 10.0 miles    
Events      
T = Trace of Precipitation, MM = Missing Value Source: Averaged Metar Reports

Daily Weather History Graph

Daily Weather History Graph

Search for Another Location

Airport or City:

Astronomy

Oct. 15, 2019 Rise Set
Actual Time 7:08 AM EDT 6:09 PM EDT
Civil Twilight 6:39 AM EDT 6:39 PM EDT
Nautical Twilight 6:05 AM EDT 7:12 PM EDT
Astronomical Twilight 5:31 AM EDT 7:46 PM EDT
Moon 7:25 PM EDT (10/15) 8:38 AM EDT (10/15)
Length of Visible Light 11h 59m
Length of Day
11h 00m
Full, 97% of the Moon is Illuminated
Oct 15
Full
Oct 21
Last Quarter
Oct 27
New
Nov 4
First Quarter
Nov 12
Full

Hourly Weather History & Observations

Time (EDT) Temp. Windchill Dew Point Humidity Pressure Visibility Wind Dir Wind Speed Gust Speed Precip Events Conditions
12:53 AM 43.0 °F - 35.1 °F 74% 30.04 in 10.0 mi Calm Calm - N/A   Clear
1:53 AM 48.0 °F - 34.0 °F 58% 30.05 in 10.0 mi West 3.5 mph - N/A   Mostly Cloudy
2:53 AM 43.0 °F 41.3 °F 36.0 °F 76% 30.06 in 10.0 mi SW 3.5 mph - N/A   Partly Cloudy
3:53 AM 37.9 °F - 35.1 °F 89% 30.07 in 10.0 mi Calm Calm - N/A   Clear
4:53 AM 37.0 °F - 34.0 °F 89% 30.09 in 10.0 mi Calm Calm - N/A   Clear
5:53 AM 36.0 °F - 33.1 °F 89% 30.11 in 10.0 mi Calm Calm - N/A   Clear
6:53 AM 34.0 °F - 32.0 °F 92% 30.10 in 10.0 mi Calm Calm - N/A   Clear
7:53 AM 36.0 °F 33.3 °F 32.0 °F 86% 30.12 in 10.0 mi SSE 3.5 mph - N/A   Clear
8:53 AM 46.0 °F - 36.0 °F 68% 30.13 in 10.0 mi Calm Calm - N/A   Clear
9:53 AM 51.1 °F - 34.0 °F 52% 30.13 in 10.0 mi Variable 3.5 mph - N/A   Clear
10:53 AM 55.0 °F - 34.0 °F 45% 30.12 in 10.0 mi Variable 6.9 mph - N/A   Clear
11:53 AM 57.9 °F - 33.1 °F 39% 30.11 in 10.0 mi Variable 6.9 mph - N/A   Clear
12:53 PM 59.0 °F - 30.9 °F 35% 30.09 in 10.0 mi Variable 4.6 mph - N/A   Mostly Cloudy
1:53 PM 59.0 °F - 30.9 °F 35% 30.07 in 10.0 mi Variable 6.9 mph - N/A   Clear
2:53 PM 57.9 °F - 37.0 °F 46% 30.06 in 10.0 mi SE 10.4 mph - N/A   Scattered Clouds
3:53 PM 57.0 °F - 36.0 °F 45% 30.05 in 10.0 mi SSE 10.4 mph - N/A   Partly Cloudy
4:53 PM 57.0 °F - 35.1 °F 44% 30.04 in 10.0 mi SSE 10.4 mph - N/A   Clear
5:53 PM 53.1 °F - 37.0 °F 55% 30.04 in 10.0 mi Calm Calm - N/A   Clear
6:53 PM 46.9 °F - 39.9 °F 77% 30.05 in 10.0 mi Calm Calm - N/A   Clear
7:53 PM 44.1 °F - 39.0 °F 82% 30.05 in 10.0 mi Calm Calm - N/A   Clear
8:53 PM 42.1 °F - 37.0 °F 82% 30.06 in 10.0 mi Calm Calm - N/A   Clear
9:53 PM 39.9 °F - 36.0 °F 86% 30.06 in 10.0 mi Calm Calm - N/A   Clear
10:53 PM 37.9 °F - 36.0 °F 93% 30.06 in 10.0 mi Calm Calm - N/A   Clear
11:53 PM 37.9 °F - 35.1 °F 89% 30.04 in 10.0 mi Calm Calm - N/A   Clear